GFSGBSN_prec_snow_294.txt.gz
Snowfall_Accumulation
0.0 0.0 0.0 0.0 0.0 0.0 0.0 0.0 0.0 0.0 0.0 0.0 0.0 0.0 0.0 0.0 0.0 0.0 0.0 0.0 0.0 0.0 0.0 0.0 0.0 0.0 0.0 0.0 0.0 0.0 0.0 0.0 0.0 0.0 0.0 0.0 0.0 0.0 0.0 0.0 0.0 0.0 0.0 0.0 0.0 0.0 0.0
0.0 0.0 0.0 0.0 0.0 0.0 0.0 0.0 0.0 0.0 0.0 0.0 0.0 0.0 0.0 0.0 0.0 0.0 0.0 0.0 0.0 0.0 0.0 0.0 0.0 0.0 0.0 0.0 0.0 0.0 0.0 0.0 0.0 0.0 0.0 0.0 0.0 0.0 0.0 0.0 0.0 0.0 0.0 0.0 0.0 0.0 0.0
0.0 0.0 0.0 0.0 0.0 0.0 0.0 0.0 0.0 0.0 0.0 0.0 0.0 0.0 0.0 0.0 0.0 0.0 0.0 0.0 0.0 0.0 0.0 0.0 0.0 0.0 0.0 0.0 0.0 0.0 0.0 0.0 0.0 0.0 0.0 0.0 0.0 0.0 0.0 0.0 0.0 0.0 0.0 0.0 0.0 0.0 0.0
0.0 0.0 0.0 0.0 0.0 0.0 0.0 0.0 0.0 0.0 0.0 0.0 0.0 0.0 0.0 0.0 0.0 0.0 0.0 0.0 0.0 0.0 0.0 0.0 0.0 0.0 0.0 0.0 0.0 0.0 0.0 0.0 0.0 0.0 0.0 0.0 0.0 0.0 0.0 0.0 0.0 0.0 0.0 0.0 0.0 0.0 0.0
0.0 0.0 0.0 0.0 0.0 0.0 0.0 0.0 0.0 0.0 0.0 0.0 0.0 0.0 0.0 0.0 0.0 0.0 0.0 0.0 0.0 0.0 0.0 0.0 0.0 0.0 0.0 0.0 0.0 0.0 0.0 0.0 0.0 0.0 0.0 0.0 0.0 0.0 0.0 0.0 0.0 0.0 0.0 0.0 0.0 0.0 0.0
0.0 0.0 0.0 0.0 0.0 0.0 0.0 0.0 0.0 0.0 0.0 0.0 0.0 0.0 0.0 0.0 0.0 0.0 0.0 0.0 0.0 0.0 0.0 0.0 0.0 0.0 0.0 0.0 0.0 0.0 0.0 0.0 0.0 0.0 0.0 0.0 0.0 0.0 0.0 0.0 0.0 0.0 0.0 0.0 0.0 0.0 0.0
0.0 0.0 0.0 0.0 0.0 0.0 0.0 0.0 0.0 0.0 0.0 0.0 0.0 0.0 0.0 0.0 0.0 0.0 0.0 0.0 0.0 0.0 0.0 0.0 0.0 0.0 0.0 0.0 0.0 0.0 0.0 0.0 0.0 0.0 0.0 0.0 0.0 0.0 0.0 0.0 0.0 0.0 0.0 0.0 0.0 0.0 0.0
0.0 0.0 0.0 0.0 0.0 0.0 0.0 0.0 0.0 0.0 0.0 0.0 0.0 0.0 0.0 0.0 0.0 0.0 0.0 0.0 0.0 0.0 0.6 0.0 0.0 0.0 0.0 0.0 0.0 0.0 0.0 0.0 0.0 0.0 0.0 0.0 0.0 0.0 0.0 0.0 0.0 0.0 0.0 0.0 0.0 0.0 0.0
0.0 0.0 0.0 0.0 0.0 0.0 0.0 0.0 0.0 0.0 0.0 0.0 0.0 0.0 0.0 0.0 0.0 0.0 0.0 0.0 0.0 0.0 2.7 0.0 0.0 0.0 0.0 0.0 0.0 0.0 0.0 0.0 0.0 0.2 0.0 0.0 0.0 0.0 0.0 0.0 0.0 0.0 0.5 0.0 0.2 0.0 0.0
0.0 0.0 0.0 0.0 0.0 0.0 0.0 0.0 0.0 0.0 0.0 0.0 0.0 0.0 0.0 0.0 0.0 0.0 0.0 0.0 0.0 0.0 6.9 0.0 0.2 0.0 0.0 0.0 0.0 0.0 0.0 0.0 0.0 0.0 0.3 0.1 0.0 0.0 0.0 0.0 0.4 0.3 0.0 0.0 0.0 0.2 0.6
0.0 0.0 0.0 0.0 0.0 0.0 0.0 0.0 0.0 0.0 0.0 0.0 0.0 0.0 0.0 0.0 0.0 0.0 0.0 0.0 0.0 0.0 34.5 0.3 0.0 0.0 0.0 0.0 0.0 0.0 0.0 0.0 0.0 0.0 0.4 0.4 0.1 0.2 0.6 0.2 0.5 0.1 0.0 0.0 0.0 0.0 0.6
0.0 0.0 0.0 0.0 0.0 0.0 0.0 0.0 0.0 0.0 0.0 0.0 0.0 0.0 0.0 0.0 0.0 0.0 0.0 0.0 0.0 37.3 45.6 1.3 0.0 0.0 0.0 0.0 0.0 0.0 0.0 0.0 0.0 0.0 0.0 0.0 0.0 0.0 0.5 0.0 0.0 0.0 0.2 0.0 0.1 0.9 3.3
0.0 0.0 0.0 0.0 0.0 0.0 0.0 0.0 0.0 0.0 0.0 0.0 0.0 0.0 0.0 0.0 0.0 0.0 0.0 0.0 58.6 61.5 0.0 2.1 0.0 0.0 0.0 0.0 0.0 0.2 0.9 0.3 0.2 2.3 1.6 0.0 0.4 0.0 0.0 0.4 0.0 0.5 0.6 6.6 5.7 6.0 3.9
0.0 0.0 0.0 0.0 0.0 0.0 0.0 0.0 0.0 0.0 0.0 0.0 0.0 0.0 0.0 0.0 0.0 0.0 0.0 13.3 70.5 12.0 3.6 0.1 0.0 0.0 0.7 0.0 0.0 0.0 0.5 0.8 0.0 0.0 0.6 2.3 2.4 0.7 0.1 2.8 0.4 0.1 0.7 3.4 5.6 2.4 0.5
0.0 0.0 0.0 0.0 0.0 0.0 0.0 0.0 0.0 0.0 0.0 0.0 0.0 0.0 0.0 0.0 0.0 0.0 6.3 85.3 51.0 1.3 0.0 0.0 0.0 1.8 2.3 0.7 0.2 0.0 1.6 2.0 1.5 0.1 4.3 5.3 2.2 0.0 0.5 0.0 0.1 1.2 4.0 0.8 5.6 1.8 4.2
0.0 0.0 0.0 0.0 0.0 0.0 0.0 0.0 0.0 0.0 0.0 0.0 0.0 0.0 0.0 0.0 0.0 0.0 36.9 64.1 23.7 0.0 0.9 0.0 2.3 1.2 2.5 2.0 1.8 2.3 1.6 4.1 2.5 2.4 0.0 3.3 8.5 0.7 0.1 0.0 0.0 1.2 1.1 8.1 12.8 25.8 15.2
0.0 0.0 0.0 0.0 0.0 0.0 0.0 0.0 0.0 0.0 0.0 0.0 0.0 8.8 0.0 0.0 0.0 2.5 63.1 18.9 8.3 0.0 0.0 2.2 2.4 4.3 1.0 2.0 5.1 4.6 4.6 2.7 4.7 1.9 0.6 1.9 8.4 1.6 0.1 2.0 3.1 0.6 3.9 7.3 9.5 15.0 16.8
0.0 0.0 0.0 0.0 0.0 0.0 0.0 0.0 0.0 0.0 0.0 0.0 0.0 41.3 0.0 0.0 33.1 39.4 40.1 15.3 1.8 0.1 0.0 2.7 1.7 1.6 3.5 2.9 3.2 5.3 7.1 5.0 0.9 1.5 3.1 3.5 7.7 10.2 1.2 0.4 0.1 0.5 7.7 11.8 45.7 39.5 28.3
0.0 0.0 0.0 0.0 0.0 0.0 0.0 0.0 0.0 0.0 0.0 0.0 18.8 23.4 0.0 0.0 56.3 39.8 12.3 15.7 5.7 4.2 3.1 5.8 3.5 0.9 1.6 2.1 7.1 4.5 4.1 0.0 2.4 5.6 6.9 7.0 10.9 13.7 6.3 1.6 0.1 6.8 9.6 9.7 14.3 31.1 29.6
0.0 0.0 0.0 0.0 0.0 0.0 0.0 0.0 0.0 0.0 0.0 0.0 23.8 54.8 13.5 0.0 7.9 12.2 14.7 15.4 10.0 0.0 2.8 0.5 7.2 0.0 5.4 7.8 2.8 5.9 4.1 2.8 6.5 5.9 2.4 4.2 7.1 8.7 9.7 6.9 6.5 7.3 3.8 7.1 17.8 28.4 19.1
0.0 0.0 0.0 0.0 0.0 0.0 0.0 0.0 0.0 0.0 0.0 0.0 41.1 44.6 0.5 38.0 23.4 10.8 11.4 10.5 7.8 7.9 4.6 0.5 6.5 3.5 4.3 10.6 7.1 4.5 4.6 6.2 9.1 0.4 3.7 12.7 12.4 5.6 4.7 1.9 1.4 3.1 3.6 2.7 11.2 6.8 12.6
0.0 0.0 0.0 0.0 0.0 0.0 0.0 0.0 0.0 0.0 0.0 3.5 80.3 24.0 5.7 7.2 4.3 14.1 10.1 13.6 5.7 5.5 11.1 7.8 8.1 3.5 2.9 6.6 3.5 7.4 4.9 2.8 8.4 0.3 9.1 11.8 14.6 9.4 12.9 3.4 4.8 7.7 5.0 3.2 5.2 4.6 4.3
0.0 0.0 0.0 0.0 0.0 0.0 0.0 0.0 0.0 0.0 0.0 20.6 7.9 0.0 17.0 6.4 5.1 11.1 13.3 10.9 8.1 10.5 3.3 2.1 4.6 6.5 5.5 4.2 0.9 0.6 0.2 0.1 1.0 6.2 7.4 13.5 19.7 18.9 19.1 4.7 6.8 14.2 6.7 4.3 3.6 1.6 1.5
0.0 0.0 0.0 0.0 0.0 0.0 0.0 0.0 0.0 0.0 0.0 0.0 0.4 3.5 25.5 25.2 10.5 7.3 5.0 2.9 6.5 7.0 15.8 3.7 2.5 5.9 0.0 0.1 0.0 0.0 0.0 2.2 0.0 2.6 2.5 13.7 16.0 23.1 23.6 9.5 22.0 6.0 3.2 1.7 0.7 0.6 0.3
0.0 0.0 0.0 0.0 0.0 0.0 0.0 0.0 0.0 0.0 0.0 0.0 0.0 3.6 21.1 26.7 5.3 6.4 5.2 5.1 3.3 3.8 7.4 8.5 4.0 0.3 0.0 1.1 11.7 20.6 18.7 17.9 12.9 6.8 6.6 5.0 9.3 23.3 22.3 15.9 9.6 1.8 0.3 0.6 6.6 4.5 0.4
0.0 0.0 0.0 0.0 0.0 0.0 0.0 0.0 0.0 0.0 0.0 0.0 0.0 0.0 8.6 34.0 10.3 0.9 5.2 1.8 4.6 8.9 9.1 6.1 2.9 0.0 0.0 8.8 22.3 26.7 17.1 10.6 7.9 5.5 3.6 4.6 7.2 19.0 23.7 19.1 10.9 0.2 0.1 0.0 0.2 12.8 0.5
0.0 0.0 0.0 0.0 0.0 0.0 0.0 0.0 0.0 0.0 0.0 0.0 0.0 0.0 6.8 42.1 2.2 0.8 6.4 8.0 1.5 3.7 10.7 2.7 2.4 5.3 0.4 20.7 31.6 23.7 13.4 3.9 5.9 2.8 8.2 12.5 19.6 27.9 19.4 17.6 3.4 0.6 0.2 0.0 12.4 11.8 4.7
0.0 0.0 0.0 0.0 0.0 0.0 0.0 0.0 0.0 0.0 0.0 0.0 0.0 0.0 6.8 42.7 4.7 0.0 0.0 0.4 3.1 3.0 11.7 6.6 16.1 11.4 18.9 20.1 19.0 15.3 16.5 10.6 8.1 3.0 2.9 5.2 18.3 19.0 17.9 23.9 10.3 0.0 1.0 4.8 3.0 5.5 7.3
0.0 0.0 0.0 0.0 0.0 0.0 0.0 0.0 0.0 0.0 0.0 0.0 8.9 0.0 0.0 18.2 10.1 0.0 0.0 0.0 0.0 0.0 2.0 5.0 10.2 12.4 15.1 20.2 15.3 10.7 10.4 7.2 9.0 11.3 1.7 6.8 6.2 12.8 12.9 10.0 2.4 0.8 1.3 1.8 1.3 4.4 6.7

GFSGBSN_prec_snow_297.txt.gz
Snowfall_Accumulation
0.0 0.0 0.0 0.0 0.0 0.0 0.0 0.0 0.0 0.0 0.0 0.0 0.0 0.0 0.0 0.0 0.0 0.0 0.0 0.0 0.0 0.0 0.0 0.0 0.0 0.0 0.0 0.0 0.0 0.0 0.0 0.0 0.0 0.0 0.0 0.0 0.0 0.0 0.0 0.0 0.0 0.0 0.0 0.0 0.0 0.0 0.0
0.0 0.0 0.0 0.0 0.0 0.0 0.0 0.0 0.0 0.0 0.0 0.0 0.0 0.0 0.0 0.0 0.0 0.0 0.0 0.0 0.0 0.0 0.0 0.0 0.0 0.0 0.0 0.0 0.0 0.0 0.0 0.0 0.0 0.0 0.0 0.0 0.0 0.0 0.0 0.0 0.0 0.0 0.0 0.0 0.0 0.0 0.0
0.0 0.0 0.0 0.0 0.0 0.0 0.0 0.0 0.0 0.0 0.0 0.0 0.0 0.0 0.0 0.0 0.0 0.0 0.0 0.0 0.0 0.0 0.0 0.0 0.0 0.0 0.0 0.0 0.0 0.0 0.0 0.0 0.0 0.0 0.0 0.0 0.0 0.0 0.0 0.0 0.0 0.0 0.0 0.0 0.0 0.0 0.0
0.0 0.0 0.0 0.0 0.0 0.0 0.0 0.0 0.0 0.0 0.0 0.0 0.0 0.0 0.0 0.0 0.0 0.0 0.0 0.0 0.0 0.0 0.0 0.0 0.0 0.0 0.0 0.0 0.0 0.0 0.0 0.0 0.0 0.0 0.0 0.0 0.0 0.0 0.0 0.0 0.0 0.0 0.0 0.0 0.0 0.0 0.0
0.0 0.0 0.0 0.0 0.0 0.0 0.0 0.0 0.0 0.0 0.0 0.0 0.0 0.0 0.0 0.0 0.0 0.0 0.0 0.0 0.0 0.0 0.0 0.0 0.0 0.0 0.0 0.0 0.0 0.0 0.0 0.0 0.0 0.0 0.0 0.0 0.0 0.0 0.0 0.0 0.0 0.0 0.0 0.0 0.0 0.0 0.0
0.0 0.0 0.0 0.0 0.0 0.0 0.0 0.0 0.0 0.0 0.0 0.0 0.0 0.0 0.0 0.0 0.0 0.0 0.0 0.0 0.0 0.0 0.0 0.0 0.0 0.0 0.0 0.0 0.0 0.0 0.0 0.0 0.0 0.0 0.0 0.0 0.0 0.0 0.0 0.0 0.0 0.0 0.0 0.0 0.0 0.0 0.0
0.0 0.0 0.0 0.0 0.0 0.0 0.0 0.0 0.0 0.0 0.0 0.0 0.0 0.0 0.0 0.0 0.0 0.0 0.0 0.0 0.0 0.0 0.0 0.0 0.0 0.0 0.0 0.0 0.0 0.0 0.0 0.0 0.0 0.0 0.0 0.0 0.0 0.0 0.0 0.0 0.0 0.0 0.0 0.0 0.0 0.0 0.0
0.0 0.0 0.0 0.0 0.0 0.0 0.0 0.0 0.0 0.0 0.0 0.0 0.0 0.0 0.0 0.0 0.0 0.0 0.0 0.0 0.0 0.0 0.6 0.0 0.0 0.0 0.0 0.0 0.0 0.0 0.0 0.0 0.0 0.0 0.0 0.0 0.0 0.0 0.0 0.0 0.0 0.0 0.0 0.0 0.0 0.0 0.0
0.0 0.0 0.0 0.0 0.0 0.0 0.0 0.0 0.0 0.0 0.0 0.0 0.0 0.0 0.0 0.0 0.0 0.0 0.0 0.0 0.0 0.0 2.7 0.0 0.0 0.0 0.0 0.0 0.0 0.0 0.0 0.0 0.0 0.2 0.0 0.0 0.0 0.0 0.0 0.0 0.0 0.0 0.5 0.0 0.2 0.0 0.0
0.0 0.0 0.0 0.0 0.0 0.0 0.0 0.0 0.0 0.0 0.0 0.0 0.0 0.0 0.0 0.0 0.0 0.0 0.0 0.0 0.0 0.0 6.9 0.0 0.2 0.0 0.0 0.0 0.0 0.0 0.0 0.0 0.0 0.0 0.3 0.1 0.0 0.0 0.0 0.0 0.4 0.3 0.0 0.0 0.0 0.2 0.6
0.0 0.0 0.0 0.0 0.0 0.0 0.0 0.0 0.0 0.0 0.0 0.0 0.0 0.0 0.0 0.0 0.0 0.0 0.0 0.0 0.0 0.0 34.5 0.3 0.0 0.0 0.0 0.0 0.0 0.0 0.0 0.0 0.0 0.0 0.4 0.4 0.1 0.2 0.6 0.2 0.5 0.1 0.0 0.0 0.0 0.0 0.6
0.0 0.0 0.0 0.0 0.0 0.0 0.0 0.0 0.0 0.0 0.0 0.0 0.0 0.0 0.0 0.0 0.0 0.0 0.0 0.0 0.0 37.3 45.6 1.3 0.0 0.0 0.0 0.0 0.0 0.0 0.0 0.0 0.0 0.0 0.0 0.0 0.0 0.0 0.5 0.0 0.0 0.0 0.2 0.0 0.1 0.9 3.3
0.0 0.0 0.0 0.0 0.0 0.0 0.0 0.0 0.0 0.0 0.0 0.0 0.0 0.0 0.0 0.0 0.0 0.0 0.0 0.0 58.6 61.5 0.0 2.1 0.0 0.0 0.0 0.0 0.0 0.2 0.9 0.3 0.2 2.3 1.6 0.0 0.4 0.0 0.0 0.4 0.0 0.5 0.6 6.6 5.7 6.0 3.9
0.0 0.0 0.0 0.0 0.0 0.0 0.0 0.0 0.0 0.0 0.0 0.0 0.0 0.0 0.0 0.0 0.0 0.0 0.0 13.3 70.5 12.0 3.6 0.1 0.0 0.0 0.7 0.0 0.0 0.0 0.5 0.8 0.0 0.0 0.6 2.3 2.4 0.7 0.1 2.8 0.4 0.1 0.7 3.4 5.6 2.4 0.5
0.0 0.0 0.0 0.0 0.0 0.0 0.0 0.0 0.0 0.0 0.0 0.0 0.0 0.0 0.0 0.0 0.0 0.0 6.3 85.3 51.0 1.3 0.0 0.0 0.0 1.8 2.3 0.7 0.2 0.0 1.6 2.0 1.5 0.1 4.3 5.3 2.2 0.0 0.5 0.0 0.1 1.2 4.0 0.8 5.6 1.8 4.2
0.0 0.0 0.0 0.0 0.0 0.0 0.0 0.0 0.0 0.0 0.0 0.0 0.0 0.0 0.0 0.0 0.0 0.0 36.9 64.1 23.7 0.0 0.9 0.0 2.3 1.2 2.5 2.0 1.8 2.3 1.6 4.1 2.5 2.4 0.0 3.3 8.5 0.7 0.1 0.0 0.0 1.2 1.1 8.1 12.8 25.8 15.2
0.0 0.0 0.0 0.0 0.0 0.0 0.0 0.0 0.0 0.0 0.0 0.0 0.0 8.8 0.0 0.0 0.0 2.5 63.2 18.9 8.3 0.0 0.0 2.2 2.4 4.3 1.0 2.0 5.1 4.6 4.6 2.7 4.7 1.9 0.6 1.9 8.4 1.6 0.1 2.0 3.1 0.6 3.9 7.3 9.5 15.0 16.8
0.0 0.0 0.0 0.0 0.0 0.0 0.0 0.0 0.0 0.0 0.0 0.0 0.0 41.3 0.0 0.0 33.2 39.4 40.1 15.3 1.8 0.1 0.0 2.7 1.7 1.6 3.5 2.9 3.2 5.3 7.1 5.0 0.9 1.5 3.1 3.5 7.7 10.2 1.2 0.4 0.1 0.5 7.7 11.8 45.7 39.5 28.3
0.0 0.0 0.0 0.0 0.0 0.0 0.0 0.0 0.0 0.0 0.0 0.0 18.8 23.4 0.0 0.0 57.3 40.4 12.5 15.7 5.7 4.2 3.1 5.8 3.5 0.9 1.6 2.1 7.1 4.5 4.1 0.0 2.4 5.6 6.9 7.0 10.9 13.7 6.3 1.6 0.1 6.8 9.6 9.7 14.3 31.1 29.6
0.0 0.0 0.0 0.0 0.0 0.0 0.0 0.0 0.0 0.0 0.0 0.0 23.8 54.8 13.5 0.3 8.5 12.2 14.9 15.4 10.0 0.0 2.8 0.5 7.2 0.0 5.4 7.8 2.8 5.9 4.1 2.8 6.5 5.9 2.4 4.2 7.1 8.7 9.7 6.9 6.5 7.3 3.8 7.1 17.8 28.4 19.1
0.0 0.0 0.0 0.0 0.0 0.0 0.0 0.0 0.0 0.0 0.0 0.0 41.1 44.6 0.6 38.0 23.4 10.8 11.4 10.5 7.9 8.0 4.6 0.5 6.5 3.5 4.3 10.6 7.1 4.5 4.6 6.2 9.1 0.4 3.7 12.7 12.4 5.6 4.7 1.9 1.4 3.1 3.6 2.7 11.2 6.8 12.6
0.0 0.0 0.0 0.0 0.0 0.0 0.0 0.0 0.0 0.0 0.0 3.5 80.3 24.2 5.7 7.2 4.3 14.1 10.1 13.7 6.0 5.5 11.1 7.8 8.1 3.5 2.9 6.6 3.5 7.4 4.9 2.8 8.4 0.3 9.1 11.8 14.6 9.4 12.9 3.4 4.8 7.7 5.0 3.2 5.2 4.6 4.3
0.0 0.0 0.0 0.0 0.0 0.0 0.0 0.0 0.0 0.0 0.0 20.6 7.9 0.0 17.2 6.4 5.1 11.1 13.4 10.9 8.1 10.5 3.3 2.2 4.9 6.5 5.5 4.2 0.9 0.6 0.2 0.1 1.0 6.2 7.4 13.5 19.7 18.9 19.1 4.7 6.8 14.2 6.7 4.3 3.6 1.6 1.5
0.0 0.0 0.0 0.0 0.0 0.0 0.0 0.0 0.0 0.0 0.0 0.0 0.4 3.5 25.8 25.2 10.5 7.3 5.0 2.9 6.5 7.0 15.8 3.7 2.7 6.0 0.0 0.1 0.0 0.0 0.0 2.2 0.0 2.6 2.5 13.7 16.0 23.1 23.6 9.5 22.0 6.0 3.2 1.7 0.7 0.6 0.3
0.0 0.0 0.0 0.0 0.0 0.0 0.0 0.0 0.0 0.0 0.0 0.0 0.0 3.7 21.1 26.9 5.3 6.4 5.2 5.1 3.3 3.8 7.4 8.5 4.1 0.3 0.0 1.1 11.7 20.6 18.7 17.9 12.9 6.8 6.6 5.0 9.3 23.3 22.3 15.9 9.6 1.8 0.3 0.6 6.6 4.5 0.4
0.0 0.0 0.0 0.0 0.0 0.0 0.0 0.0 0.0 0.0 0.0 0.0 0.0 0.0 8.9 34.5 10.3 0.9 5.2 1.8 4.6 8.9 9.1 6.1 2.9 0.0 0.0 8.8 22.3 26.7 17.1 10.6 7.9 5.5 3.6 4.6 7.2 19.0 23.7 19.1 10.9 0.2 0.1 0.0 0.2 12.8 0.5
0.0 0.0 0.0 0.0 0.0 0.0 0.0 0.0 0.0 0.0 0.0 0.0 0.0 0.0 7.0 42.3 2.2 0.8 6.4 8.0 1.5 4.0 10.8 2.7 2.4 5.3 0.4 21.0 31.8 23.7 13.4 3.9 5.9 2.8 8.2 12.5 19.6 27.9 19.4 17.6 3.4 0.6 0.2 0.0 12.4 11.8 4.7
0.0 0.0 0.0 0.0 0.0 0.0 0.0 0.0 0.0 0.0 0.0 0.0 0.0 0.0 7.0 43.1 4.7 0.0 0.0 0.4 3.1 3.0 11.7 6.6 16.1 11.4 18.9 20.6 19.8 15.5 16.5 10.6 8.1 3.0 2.9 5.2 18.3 19.0 17.9 23.9 10.3 0.0 1.0 4.8 3.0 5.5 7.3
0.0 0.0 0.0 0.0 0.0 0.0 0.0 0.0 0.0 0.0 0.0 0.0 8.9 0.0 0.0 18.5 10.1 0.0 0.0 0.0 0.0 0.0 2.0 5.0 10.2 12.4 15.1 20.2 16.0 11.1 10.5 7.2 9.0 11.3 1.7 6.8 6.2 12.8 12.9 10.0 2.4 0.8 1.3 1.8 1.3 4.4 6.7

GFSGBSN_prec_snow_303.txt.gz
Snowfall_Accumulation
0.0 0.0 0.0 0.0 0.0 0.0 0.0 0.0 0.0 0.0 0.0 0.0 0.0 0.0 0.0 0.0 0.0 0.0 0.0 0.0 0.0 0.0 0.0 0.0 0.0 0.0 0.0 0.0 0.0 0.0 0.0 0.0 0.0 0.0 0.0 0.0 0.0 0.0 0.0 0.0 0.0 0.0 0.0 0.0 0.0 0.0 0.0
0.0 0.0 0.0 0.0 0.0 0.0 0.0 0.0 0.0 0.0 0.0 0.0 0.0 0.0 0.0 0.0 0.0 0.0 0.0 0.0 0.0 0.0 0.0 0.0 0.0 0.0 0.0 0.0 0.0 0.0 0.0 0.0 0.0 0.0 0.0 0.0 0.0 0.0 0.0 0.0 0.0 0.0 0.0 0.0 0.0 0.0 0.0
0.0 0.0 0.0 0.0 0.0 0.0 0.0 0.0 0.0 0.0 0.0 0.0 0.0 0.0 0.0 0.0 0.0 0.0 0.0 0.0 0.0 0.0 0.0 0.0 0.0 0.0 0.0 0.0 0.0 0.0 0.0 0.0 0.0 0.0 0.0 0.0 0.0 0.0 0.0 0.0 0.0 0.0 0.0 0.0 0.0 0.0 0.0
0.0 0.0 0.0 0.0 0.0 0.0 0.0 0.0 0.0 0.0 0.0 0.0 0.0 0.0 0.0 0.0 0.0 0.0 0.0 0.0 0.0 0.0 0.0 0.0 0.0 0.0 0.0 0.0 0.0 0.0 0.0 0.0 0.0 0.0 0.0 0.0 0.0 0.0 0.0 0.0 0.0 0.0 0.0 0.0 0.0 0.0 0.0
0.0 0.0 0.0 0.0 0.0 0.0 0.0 0.0 0.0 0.0 0.0 0.0 0.0 0.0 0.0 0.0 0.0 0.0 0.0 0.0 0.0 0.0 0.0 0.0 0.0 0.0 0.0 0.0 0.0 0.0 0.0 0.0 0.0 0.0 0.0 0.0 0.0 0.0 0.0 0.0 0.0 0.0 0.0 0.0 0.0 0.0 0.0
0.0 0.0 0.0 0.0 0.0 0.0 0.0 0.0 0.0 0.0 0.0 0.0 0.0 0.0 0.0 0.0 0.0 0.0 0.0 0.0 0.0 0.0 0.0 0.0 0.0 0.0 0.0 0.0 0.0 0.0 0.0 0.0 0.0 0.0 0.0 0.0 0.0 0.0 0.0 0.0 0.0 0.0 0.0 0.0 0.0 0.0 0.0
0.0 0.0 0.0 0.0 0.0 0.0 0.0 0.0 0.0 0.0 0.0 0.0 0.0 0.0 0.0 0.0 0.0 0.0 0.0 0.0 0.0 0.0 0.0 0.0 0.0 0.0 0.0 0.0 0.0 0.0 0.0 0.0 0.0 0.0 0.0 0.0 0.0 0.0 0.0 0.0 0.0 0.0 0.0 0.0 0.0 0.0 0.0
0.0 0.0 0.0 0.0 0.0 0.0 0.0 0.0 0.0 0.0 0.0 0.0 0.0 0.0 0.0 0.0 0.0 0.0 0.0 0.0 0.0 0.0 0.6 0.0 0.0 0.0 0.0 0.0 0.0 0.0 0.0 0.0 0.0 0.0 0.0 0.0 0.0 0.0 0.0 0.0 0.0 0.0 0.0 0.0 0.0 0.0 0.0
0.0 0.0 0.0 0.0 0.0 0.0 0.0 0.0 0.0 0.0 0.0 0.0 0.0 0.0 0.0 0.0 0.0 0.0 0.0 0.0 0.0 0.0 2.7 0.0 0.0 0.0 0.0 0.0 0.0 0.0 0.0 0.0 0.0 0.2 0.0 0.0 0.0 0.0 0.0 0.0 0.0 0.0 0.5 0.0 0.2 0.0 0.0
0.0 0.0 0.0 0.0 0.0 0.0 0.0 0.0 0.0 0.0 0.0 0.0 0.0 0.0 0.0 0.0 0.0 0.0 0.0 0.0 0.0 0.0 6.9 0.0 0.2 0.0 0.0 0.0 0.0 0.0 0.0 0.0 0.0 0.0 0.3 0.1 0.0 0.0 0.0 0.0 0.4 0.3 0.0 0.0 0.0 0.2 0.6
0.0 0.0 0.0 0.0 0.0 0.0 0.0 0.0 0.0 0.0 0.0 0.0 0.0 0.0 0.0 0.0 0.0 0.0 0.0 0.0 0.0 0.0 34.5 0.3 0.0 0.0 0.0 0.0 0.0 0.0 0.0 0.0 0.0 0.0 0.4 0.4 0.1 0.2 0.6 0.2 0.5 0.1 0.0 0.0 0.0 0.0 0.6
0.0 0.0 0.0 0.0 0.0 0.0 0.0 0.0 0.0 0.0 0.0 0.0 0.0 0.0 0.0 0.0 0.0 0.0 0.0 0.0 0.0 37.3 45.6 1.3 0.0 0.0 0.0 0.0 0.0 0.0 0.0 0.0 0.0 0.0 0.0 0.0 0.0 0.0 0.5 0.0 0.0 0.0 0.2 0.0 0.1 0.9 3.3
0.0 0.0 0.0 0.0 0.0 0.0 0.0 0.0 0.0 0.0 0.0 0.0 0.0 0.0 0.0 0.0 0.0 0.0 0.0 0.0 58.6 61.5 0.0 2.1 0.0 0.0 0.0 0.0 0.0 0.2 0.9 0.3 0.2 2.3 1.6 0.0 0.4 0.0 0.0 0.4 0.0 0.5 0.6 6.6 5.7 6.0 3.9
0.0 0.0 0.0 0.0 0.0 0.0 0.0 0.0 0.0 0.0 0.0 0.0 0.0 0.0 0.0 0.0 0.0 0.0 0.0 13.4 70.5 12.0 3.6 0.1 0.0 0.0 0.7 0.0 0.0 0.0 0.5 0.8 0.0 0.0 0.6 2.3 2.4 0.7 0.1 2.8 0.4 0.1 0.7 3.4 5.6 2.4 0.5
0.0 0.0 0.0 0.0 0.0 0.0 0.0 0.0 0.0 0.0 0.0 0.0 0.0 0.0 0.0 0.0 0.0 0.0 6.3 85.3 51.0 1.3 0.0 0.0 0.0 1.8 2.3 0.7 0.2 0.0 1.6 2.0 1.5 0.1 4.3 5.3 2.2 0.0 0.5 0.0 0.1 1.2 4.0 0.8 5.6 1.8 4.2
0.0 0.0 0.0 0.0 0.0 0.0 0.0 0.0 0.0 0.0 0.0 0.0 0.0 0.0 0.0 0.0 0.0 0.0 37.0 64.1 23.7 0.0 0.9 0.0 2.3 1.2 2.5 2.0 1.8 2.3 1.6 4.1 2.5 2.4 0.0 3.3 8.5 0.7 0.1 0.0 0.0 1.2 1.1 8.1 12.8 25.8 15.2
0.0 0.0 0.0 0.0 0.0 0.0 0.0 0.0 0.0 0.0 0.0 0.0 0.0 8.8 0.0 0.0 0.0 2.5 63.2 18.9 8.3 0.0 0.0 2.2 2.4 4.3 1.0 2.0 5.1 4.6 4.6 2.7 4.7 1.9 0.6 1.9 8.4 1.6 0.1 2.0 3.1 0.6 3.9 7.3 9.5 15.0 16.8
0.0 0.0 0.0 0.0 0.0 0.0 0.0 0.0 0.0 0.0 0.0 0.0 0.0 41.3 0.0 0.0 33.3 39.8 40.1 15.3 1.8 0.1 0.0 2.7 1.7 1.6 3.5 2.9 3.2 5.3 7.1 5.0 0.9 1.5 3.1 3.5 7.7 10.2 1.2 0.4 0.1 0.5 7.7 11.8 45.7 39.5 28.3
0.0 0.0 0.0 0.0 0.0 0.0 0.0 0.0 0.0 0.0 0.0 0.0 18.8 23.4 0.0 0.0 57.6 40.4 12.5 15.7 5.7 4.2 3.1 5.8 3.5 0.9 1.6 2.1 7.1 4.5 4.1 0.0 2.4 5.6 6.9 7.0 10.9 13.7 6.3 1.6 0.1 6.8 9.6 9.7 14.3 31.1 29.6
0.0 0.0 0.0 0.0 0.0 0.0 0.0 0.0 0.0 0.0 0.0 0.0 23.8 54.8 13.5 0.3 8.5 12.2 14.9 15.4 10.1 0.0 2.9 0.6 7.4 0.0 5.4 7.8 2.8 5.9 4.1 2.8 6.5 5.9 2.4 4.2 7.1 8.7 9.7 6.9 6.5 7.3 3.8 7.1 17.8 28.4 19.1
0.0 0.0 0.0 0.0 0.0 0.0 0.0 0.0 0.0 0.0 0.0 0.0 41.1 44.7 0.6 38.0 23.4 10.8 11.4 10.6 7.9 8.0 4.6 0.5 7.0 3.6 4.4 10.6 7.1 4.6 4.6 6.2 9.1 0.4 3.7 12.7 12.4 5.6 4.7 1.9 1.4 3.1 3.6 2.7 11.2 6.8 12.6
0.0 0.0 0.0 0.0 0.0 0.0 0.0 0.0 0.0 0.0 0.0 3.5 80.3 24.2 5.7 7.2 4.3 14.1 10.1 13.7 6.0 5.5 11.1 7.8 8.1 3.5 2.9 6.8 4.1 8.0 5.2 2.8 8.4 0.3 9.1 11.8 14.6 9.4 12.9 3.4 4.8 7.7 5.0 3.2 5.2 4.6 4.3
0.0 0.0 0.0 0.0 0.0 0.0 0.0 0.0 0.0 0.0 0.0 20.6 7.9 0.0 17.2 6.4 5.1 11.1 13.4 10.9 8.1 10.5 3.3 2.2 4.9 6.8 5.5 4.3 0.9 0.6 0.5 0.2 1.0 6.2 7.4 13.5 19.7 18.9 19.1 4.7 6.8 14.2 6.7 4.3 3.6 1.6 1.5
0.0 0.0 0.0 0.0 0.0 0.0 0.0 0.0 0.0 0.0 0.0 0.0 0.4 3.6 25.8 25.2 10.5 7.3 5.0 2.9 6.5 7.0 15.8 3.7 2.7 6.0 0.0 0.1 0.0 0.0 0.0 2.2 0.0 2.6 2.5 13.7 16.0 23.1 23.6 9.5 22.0 6.0 3.2 1.7 0.7 0.6 0.3
0.0 0.0 0.0 0.0 0.0 0.0 0.0 0.0 0.0 0.0 0.0 0.0 0.0 3.7 21.3 27.0 5.3 6.4 5.2 5.1 3.3 3.8 7.4 8.5 4.1 0.3 0.0 1.1 11.7 20.6 18.7 17.9 13.1 6.8 6.6 5.0 9.3 23.3 22.3 15.9 9.6 1.8 0.3 0.6 6.6 4.5 0.4
0.0 0.0 0.0 0.0 0.0 0.0 0.0 0.0 0.0 0.0 0.0 0.0 0.0 0.0 9.3 35.1 10.3 0.9 5.2 1.8 4.6 8.9 9.1 6.1 2.9 0.0 0.0 8.8 22.6 26.7 17.1 10.6 8.0 5.9 3.6 4.6 7.2 19.0 23.7 19.1 10.9 0.2 0.1 0.0 0.2 12.8 0.5
0.0 0.0 0.0 0.0 0.0 0.0 0.0 0.0 0.0 0.0 0.0 0.0 0.0 0.0 7.0 42.7 2.2 0.8 6.4 8.0 1.5 4.0 10.9 2.7 2.4 5.3 0.4 21.2 32.6 24.1 13.4 3.9 5.9 2.9 8.4 12.8 19.6 27.9 19.4 17.6 3.4 0.6 0.2 0.0 12.4 11.8 4.7
0.0 0.0 0.0 0.0 0.0 0.0 0.0 0.0 0.0 0.0 0.0 0.0 0.0 0.0 7.0 43.1 4.7 0.0 0.0 0.4 3.1 3.0 11.7 6.6 16.1 11.4 18.9 20.6 20.5 16.2 17.0 10.6 8.2 3.0 3.0 5.4 19.2 19.0 17.9 23.9 10.3 0.0 1.0 4.8 3.0 5.5 7.3
0.0 0.0 0.0 0.0 0.0 0.0 0.0 0.0 0.0 0.0 0.0 0.0 8.9 0.0 0.0 18.8 10.1 0.0 0.0 0.0 0.0 0.0 2.0 5.0 10.2 12.4 15.1 20.2 16.0 11.1 11.6 8.0 9.3 11.4 1.7 6.9 6.4 13.0 12.9 10.0 2.4 0.8 1.3 1.8 1.3 4.4 6.7

GFSGBSN_prec_snow_306.txt.gz
Snowfall_Accumulation
0.0 0.0 0.0 0.0 0.0 0.0 0.0 0.0 0.0 0.0 0.0 0.0 0.0 0.0 0.0 0.0 0.0 0.0 0.0 0.0 0.0 0.0 0.0 0.0 0.0 0.0 0.0 0.0 0.0 0.0 0.0 0.0 0.0 0.0 0.0 0.0 0.0 0.0 0.0 0.0 0.0 0.0 0.0 0.0 0.0 0.0 0.0
0.0 0.0 0.0 0.0 0.0 0.0 0.0 0.0 0.0 0.0 0.0 0.0 0.0 0.0 0.0 0.0 0.0 0.0 0.0 0.0 0.0 0.0 0.0 0.0 0.0 0.0 0.0 0.0 0.0 0.0 0.0 0.0 0.0 0.0 0.0 0.0 0.0 0.0 0.0 0.0 0.0 0.0 0.0 0.0 0.0 0.0 0.0
0.0 0.0 0.0 0.0 0.0 0.0 0.0 0.0 0.0 0.0 0.0 0.0 0.0 0.0 0.0 0.0 0.0 0.0 0.0 0.0 0.0 0.0 0.0 0.0 0.0 0.0 0.0 0.0 0.0 0.0 0.0 0.0 0.0 0.0 0.0 0.0 0.0 0.0 0.0 0.0 0.0 0.0 0.0 0.0 0.0 0.0 0.0
0.0 0.0 0.0 0.0 0.0 0.0 0.0 0.0 0.0 0.0 0.0 0.0 0.0 0.0 0.0 0.0 0.0 0.0 0.0 0.0 0.0 0.0 0.0 0.0 0.0 0.0 0.0 0.0 0.0 0.0 0.0 0.0 0.0 0.0 0.0 0.0 0.0 0.0 0.0 0.0 0.0 0.0 0.0 0.0 0.0 0.0 0.0
0.0 0.0 0.0 0.0 0.0 0.0 0.0 0.0 0.0 0.0 0.0 0.0 0.0 0.0 0.0 0.0 0.0 0.0 0.0 0.0 0.0 0.0 0.0 0.0 0.0 0.0 0.0 0.0 0.0 0.0 0.0 0.0 0.0 0.0 0.0 0.0 0.0 0.0 0.0 0.0 0.0 0.0 0.0 0.0 0.0 0.0 0.0
0.0 0.0 0.0 0.0 0.0 0.0 0.0 0.0 0.0 0.0 0.0 0.0 0.0 0.0 0.0 0.0 0.0 0.0 0.0 0.0 0.0 0.0 0.0 0.0 0.0 0.0 0.0 0.0 0.0 0.0 0.0 0.0 0.0 0.0 0.0 0.0 0.0 0.0 0.0 0.0 0.0 0.0 0.0 0.0 0.0 0.0 0.0
0.0 0.0 0.0 0.0 0.0 0.0 0.0 0.0 0.0 0.0 0.0 0.0 0.0 0.0 0.0 0.0 0.0 0.0 0.0 0.0 0.0 0.0 0.0 0.0 0.0 0.0 0.0 0.0 0.0 0.0 0.0 0.0 0.0 0.0 0.0 0.0 0.0 0.0 0.0 0.0 0.0 0.0 0.0 0.0 0.0 0.0 0.0
0.0 0.0 0.0 0.0 0.0 0.0 0.0 0.0 0.0 0.0 0.0 0.0 0.0 0.0 0.0 0.0 0.0 0.0 0.0 0.0 0.0 0.0 0.6 0.0 0.0 0.0 0.0 0.0 0.0 0.0 0.0 0.0 0.0 0.0 0.0 0.0 0.0 0.0 0.0 0.0 0.0 0.0 0.0 0.0 0.0 0.0 0.0
0.0 0.0 0.0 0.0 0.0 0.0 0.0 0.0 0.0 0.0 0.0 0.0 0.0 0.0 0.0 0.0 0.0 0.0 0.0 0.0 0.0 0.0 2.7 0.0 0.0 0.0 0.0 0.0 0.0 0.0 0.0 0.0 0.0 0.2 0.0 0.0 0.0 0.0 0.0 0.0 0.0 0.0 0.5 0.0 0.2 0.0 0.0
0.0 0.0 0.0 0.0 0.0 0.0 0.0 0.0 0.0 0.0 0.0 0.0 0.0 0.0 0.0 0.0 0.0 0.0 0.0 0.0 0.0 0.0 6.9 0.0 0.2 0.0 0.0 0.0 0.0 0.0 0.0 0.0 0.0 0.0 0.3 0.1 0.0 0.0 0.0 0.0 0.4 0.3 0.0 0.0 0.0 0.2 0.6
0.0 0.0 0.0 0.0 0.0 0.0 0.0 0.0 0.0 0.0 0.0 0.0 0.0 0.0 0.0 0.0 0.0 0.0 0.0 0.0 0.0 0.0 34.5 0.3 0.0 0.0 0.0 0.0 0.0 0.0 0.0 0.0 0.0 0.0 0.4 0.4 0.1 0.2 0.6 0.2 0.5 0.1 0.0 0.0 0.0 0.0 0.6
0.0 0.0 0.0 0.0 0.0 0.0 0.0 0.0 0.0 0.0 0.0 0.0 0.0 0.0 0.0 0.0 0.0 0.0 0.0 0.0 0.0 37.3 45.6 1.3 0.0 0.0 0.0 0.0 0.0 0.0 0.0 0.0 0.0 0.0 0.0 0.0 0.0 0.0 0.5 0.0 0.0 0.0 0.2 0.0 0.1 0.9 3.4
0.0 0.0 0.0 0.0 0.0 0.0 0.0 0.0 0.0 0.0 0.0 0.0 0.0 0.0 0.0 0.0 0.0 0.0 0.0 0.0 58.6 61.5 0.0 2.1 0.0 0.0 0.0 0.0 0.0 0.2 0.9 0.3 0.2 2.3 1.6 0.0 0.4 0.0 0.0 0.4 0.0 0.5 0.6 6.6 5.7 6.1 3.9
0.0 0.0 0.0 0.0 0.0 0.0 0.0 0.0 0.0 0.0 0.0 0.0 0.0 0.0 0.0 0.0 0.0 0.0 0.0 13.4 70.5 12.0 3.6 0.1 0.0 0.0 0.7 0.0 0.0 0.0 0.5 0.8 0.0 0.0 0.6 2.3 2.4 0.7 0.1 2.8 0.4 0.1 0.7 3.4 5.6 2.4 0.5
0.0 0.0 0.0 0.0 0.0 0.0 0.0 0.0 0.0 0.0 0.0 0.0 0.0 0.0 0.0 0.0 0.0 0.0 6.3 85.3 51.0 1.3 0.0 0.0 0.0 1.8 2.3 0.7 0.2 0.0 1.6 2.0 1.5 0.1 4.3 5.3 2.2 0.0 0.5 0.0 0.1 1.2 4.0 0.8 5.6 1.8 4.2
0.0 0.0 0.0 0.0 0.0 0.0 0.0 0.0 0.0 0.0 0.0 0.0 0.0 0.0 0.0 0.0 0.0 0.0 37.0 64.1 23.7 0.0 0.9 0.0 2.3 1.2 2.5 2.0 1.8 2.3 1.6 4.1 2.5 2.4 0.0 3.3 8.5 0.7 0.1 0.0 0.0 1.2 1.1 8.1 12.8 25.8 15.2
0.0 0.0 0.0 0.0 0.0 0.0 0.0 0.0 0.0 0.0 0.0 0.0 0.0 8.8 0.0 0.0 0.0 2.5 63.3 18.9 8.3 0.0 0.0 2.2 2.4 4.3 1.0 2.0 5.1 4.6 4.6 2.7 4.7 1.9 0.6 1.9 8.4 1.6 0.1 2.0 3.1 0.6 3.9 7.3 9.5 15.0 16.8
0.0 0.0 0.0 0.0 0.0 0.0 0.0 0.0 0.0 0.0 0.0 0.0 0.0 41.3 0.0 0.0 33.4 39.8 40.1 15.3 1.8 0.2 0.0 2.7 1.7 1.6 3.5 2.9 3.2 5.3 7.1 5.0 0.9 1.5 3.1 3.5 7.7 10.2 1.2 0.4 0.1 0.5 7.7 11.8 45.7 39.5 28.3
0.0 0.0 0.0 0.0 0.0 0.0 0.0 0.0 0.0 0.0 0.0 0.0 18.8 23.4 0.0 0.0 57.6 40.5 12.5 15.7 5.7 4.2 3.1 5.9 3.5 0.9 1.6 2.1 7.1 4.5 4.1 0.0 2.4 5.6 6.9 7.0 10.9 13.7 6.3 1.6 0.1 6.8 9.6 9.7 14.3 31.1 29.6
0.0 0.0 0.0 0.0 0.0 0.0 0.0 0.0 0.0 0.0 0.0 0.0 23.8 54.8 13.5 0.3 8.5 12.3 14.9 15.4 10.1 0.0 2.9 0.6 7.7 0.0 5.4 7.8 2.8 6.0 4.1 2.8 6.5 5.9 2.4 4.2 7.1 8.7 9.7 6.9 6.5 7.3 3.8 7.1 17.8 28.4 19.1
0.0 0.0 0.0 0.0 0.0 0.0 0.0 0.0 0.0 0.0 0.0 0.0 41.1 44.7 0.6 38.0 23.4 10.8 11.4 10.6 7.9 8.0 4.6 0.5 7.4 3.6 4.6 10.7 7.1 4.6 4.6 6.2 9.1 0.4 3.7 12.7 12.4 5.6 4.7 1.9 1.4 3.1 3.6 2.7 11.2 6.8 12.6
0.0 0.0 0.0 0.0 0.0 0.0 0.0 0.0 0.0 0.0 0.0 3.5 80.3 24.2 5.7 7.2 4.3 14.1 10.1 13.7 6.0 5.5 11.1 7.8 8.1 3.5 2.9 7.2 4.4 8.1 5.8 3.5 8.6 0.3 9.1 11.8 14.6 9.4 12.9 3.4 4.8 7.7 5.0 3.2 5.2 4.6 4.3
0.0 0.0 0.0 0.0 0.0 0.0 0.0 0.0 0.0 0.0 0.0 20.6 7.9 0.0 17.2 6.4 5.1 11.1 13.4 10.9 8.1 10.5 3.3 2.2 4.9 6.8 5.5 4.4 0.9 0.6 0.5 0.2 1.7 6.5 7.4 13.5 19.7 18.9 19.1 4.7 6.8 14.2 6.7 4.3 3.6 1.6 1.5
0.0 0.0 0.0 0.0 0.0 0.0 0.0 0.0 0.0 0.0 0.0 0.0 0.4 3.7 25.8 25.2 10.5 7.3 5.0 2.9 6.5 7.0 15.8 3.7 2.7 6.0 0.0 0.1 0.0 0.0 0.0 2.2 0.0 2.6 2.5 13.7 16.0 23.1 23.6 9.5 22.0 6.0 3.2 1.7 0.7 0.6 0.3
0.0 0.0 0.0 0.0 0.0 0.0 0.0 0.0 0.0 0.0 0.0 0.0 0.0 3.8 21.4 27.1 5.3 6.4 5.2 5.1 3.3 3.8 7.4 8.5 4.2 0.3 0.0 1.1 11.7 20.6 18.7 18.0 13.1 6.9 6.8 5.0 9.4 23.3 22.3 15.9 9.6 1.8 0.3 0.6 6.6 4.5 0.4
0.0 0.0 0.0 0.0 0.0 0.0 0.0 0.0 0.0 0.0 0.0 0.0 0.0 0.0 9.4 35.2 10.3 0.9 5.2 1.8 4.6 8.9 9.1 6.1 2.9 0.0 0.0 8.8 22.8 26.9 17.3 10.7 8.0 6.2 3.6 4.6 7.2 19.0 23.7 19.1 10.9 0.2 0.1 0.0 0.2 12.8 0.5
0.0 0.0 0.0 0.0 0.0 0.0 0.0 0.0 0.0 0.0 0.0 0.0 0.0 0.0 7.1 42.7 2.2 0.8 6.4 8.1 1.6 4.1 10.9 2.7 2.4 5.3 0.4 21.3 32.8 24.3 13.5 4.1 6.1 3.0 8.5 14.0 20.3 28.0 19.4 17.6 3.4 0.6 0.2 0.0 12.4 11.8 4.7
0.0 0.0 0.0 0.0 0.0 0.0 0.0 0.0 0.0 0.0 0.0 0.0 0.0 0.0 7.0 43.3 4.7 0.0 0.0 0.5 3.2 3.0 11.7 6.6 16.1 11.5 18.9 20.8 20.7 16.3 17.2 10.8 8.5 3.0 3.1 5.4 20.1 19.8 18.0 23.9 10.4 0.0 1.0 4.8 3.0 5.5 7.3
0.0 0.0 0.0 0.0 0.0 0.0 0.0 0.0 0.0 0.0 0.0 0.0 9.0 0.0 0.0 19.1 10.1 0.0 0.0 0.0 0.0 0.0 2.0 5.1 10.3 12.4 15.2 20.5 16.2 11.2 11.6 8.1 9.3 11.8 1.7 7.2 6.5 13.4 13.3 10.1 2.4 0.8 1.3 1.8 1.3 4.4 6.7